Location: Berlin
(52.5171°N, 13.3759°E)
Time: 07:02:23
(UTC+01:00)

ISS - Pass Details

Date: 04 January 2018
Orbit: 402 x 407 km, 51.6° (Epoch: 18 January)

Event Time Altitude Azimuth Distance (km) Brightness Sun altitude
Exits shadow 06:53:39 17° 265° (W) 1,124 -2.1 -11.7°
Maximum altitude 06:56:05 78° 180° (S) 421 -3.8 -11.4°
Drops below altitude 10° 06:59:23 10° 94° (E) 1,472 0.3 -10.9°
Sets 07:01:28 0° 93° (E) 2,333 1.5 -10.6°
